Home   Weather   Prince Albert   Past weeks

Flag for Canada Past Weather in Prince Albert, Saskatchewan, Canada — Yesterday and Last 2 Weeks

Now
16 °F

Light snow. Overcast.


Feels Like: 4 °F
Forecast: 16 / 20 °F
Wind: 9 mph from North

Location: Prince Albert

Current Time: Jan 23, 2017 at 11:23:01 am

Latest Report: Jan 23, 2017 at 11:00 am


Visibility: 15 mi

Pressure: 29.92 "Hg

Humidity: 79%

Dew Point: 10 °F

Location of Prince AlbertLocation

Past Weather in Prince Albert — Graph

°F

Prince Albert Temperature Yesterday

Maximum temperature yesterday: 27 °F (at 12:00 am)
Minimum temperature yesterday: 19 °F (at 11:00 pm)
Average temperature yesterday: 24 °F

High & Low Weather Summary for the Past Weeks

 TemperatureHumidityPressure
High43 °F (Jan 18, 2:00 pm)100% (Jan 18, 11:00 pm)30.47 "Hg (Jan 18, 11:00 pm)
Low-31 °F (Jan 11, 5:00 am)54% (Jan 14, 4:00 pm)29.28 "Hg (Jan 18, 5:00 pm)
Average9 °F79%29.80 "Hg
* Reported Jan 8 10:00 am — Jan 23 10:00 am, Prince Albert, Weather by CustomWeather, © 2017

Note: Actual official high and low records may vary slightly from our data, if they occured in-between our weather recording intervals... More about our weather records

Advertising

Prince Albert Weather History for the Previous 24 Hours

Scroll right to see more
 ConditionsComfort  
Time TempWeatherWind HumidityBarometerVisibility
10:00 am
Mon, Jan 23
16 °FLight snow. Overcast.7 mph79%29.91 "Hg10 mi
9:00 am16 °FLight snow. Overcast.8 mph86%29.90 "Hg6 mi
8:00 am16 °FLight snow. Overcast.10 mph86%29.90 "Hg5 mi
7:40 am16 °FLight snow. Overcast.9 mph86%29.90 "Hg5 mi
7:30 am16 °FLight snow. Overcast.8 mph86%29.89 "Hg2 mi
7:00 am16 °FLight snow. Overcast.8 mph86%29.90 "Hg4 mi
6:00 am18 °FLight snow. Overcast.9 mph86%29.89 "Hg2 mi
5:00 am18 °FLight snow. Overcast.9 mph86%29.89 "Hg3 mi
4:16 am18 °FLight snow. Overcast.7 mph86%29.89 "Hg4 mi
4:00 am18 °FLight snow. Overcast.10 mph86%29.89 "Hg1 mi
3:00 am19 °FLight snow. Overcast.10 mph86%29.88 "Hg1 mi
2:41 am19 °FLight snow. Overcast.8 mph86%29.88 "Hg2 mi
2:00 am19 °FLight snow. Overcast.7 mph86%29.88 "Hg4 mi
1:00 am19 °FLight snow. Overcast.10 mph86%29.88 "Hg10 mi
12:00 am19 °FLight snow. Overcast.9 mph86%29.88 "Hg5 mi
11:00 pm
Sun, Jan 22
19 °FLight snow. Overcast.9 mph93%29.88 "Hg3 mi
10:00 pm21 °FLight snow. Overcast.8 mph86%29.88 "Hg4 mi
9:37 pm21 °FLight snow. Overcast.9 mph86%29.88 "Hg4 mi
9:00 pm21 °FLight snow. Overcast.10 mph86%29.88 "Hg2 mi
8:27 pm21 °FLight snow. Overcast.9 mph86%29.88 "Hg2 mi
8:12 pm21 °FLight snow. Overcast.8 mph86%29.88 "Hg2 mi
8:00 pm21 °FLight snow. Overcast.9 mph86%29.88 "Hg3 mi
7:17 pm21 °FLight snow. Overcast.10 mph93%29.88 "Hg2 mi
7:00 pm21 °FLight snow. Overcast.8 mph93%29.88 "Hg2 mi
6:00 pm23 °FLight snow. Overcast.12 mph86%29.88 "Hg1 mi
5:26 pm23 °FLight snow. Overcast.10 mph86%29.88 "Hg1 mi
5:19 pm23 °FLight snow. Overcast.10 mph86%29.88 "Hg1 mi
5:00 pm23 °FLight snow. More clouds than sun.12 mph86%29.87 "Hg3 mi
4:00 pm25 °FLight snow. Overcast.9 mph80%29.87 "Hg4 mi
3:51 pm25 °FLight snow. Overcast.8 mph86%29.86 "Hg4 mi
3:37 pm25 °FLight snow. Overcast.9 mph86%29.86 "Hg2 mi
3:04 pm25 °FLight snow. Ice fog.13 mph80%29.85 "Hg2 mi
2:15 pm25 °FLight snow. Ice fog.14 mph80%29.86 "Hg2 mi
1:00 pm23 °FLight snow. Ice fog.13 mph86%29.86 "Hg5 mi
12:00 pm23 °FLight snow. Ice fog.13 mph86%29.86 "Hg5 mi
11:00 am23 °FLight snow. Ice fog.10 mph86%29.86 "Hg5 mi
Weather by CustomWeather, © 2017

See weather overviewHow to use our weather pages